1998-067PJ

Last updated on Mon Oct 22 2018 00:00:45 GMT+0000 (Coordinated Universal Time)

1 43597U 98067PJ 18294.52724360 .00009389 00000-0 14059-3 0 9992 2 43597 51.6367 108.5860 0003275 299.5737 60.4928 15.55716209 10398
UTC large
Height (km)
Speed (km/s)
/
Latitude / Longitude
Inclination (degrees)
Orbital Period (minutes)
Azimuth
Elevation
Range (km)
Doppler Factor

Next 0 passes for location: London (51.5072 / 0.1276)

Sorry there are no passes over London.